Regional Weather Roundup
Issued by NWS

Home | Current Version | Previous Version | Text Only | Print | Product List | Glossary On
Versions: 1 2 3 4 5 6 7 8 9 10 11 12 13 14 15 16 17 18 19 20 21 22 23 24 25 26 27 28 29 30 31 32 33 34 35 36 37 38 39 40 41 42 43 44 45 46 47 48 49 50
687
ASUS43 KTOP 251559
RWRKS

WEATHER ROUNDUP FOR KANSAS
NATIONAL WEATHER SERVICE GOODLAND KS
1100 AM CDT SUN JUN 25 2017

NOTE:  "FAIR" INDICATES FEW OR NO CLOUDS BELOW 12,000 FEET WITH NO
SIGNIFICANT WEATHER AND/OR OBSTRUCTIONS TO VISIBILITY.

KSZ001>006-013>018-027>032-041>047-251700-
NORTHWEST KANSAS

CITY           SKY/WX    TMP DP  RH WIND       PRES   REMARKS
GOODLAND       LGT RAIN  53  52  96 E14       30.38S
HAYS           MOSUNNY   69  57  65 NE12      30.32F
HILL CITY      CLOUDY    65  52  62 NE9       30.37R
RUSSELL        CLOUDY    66  56  70 E10       30.31F
$$

KSZ061>065-074>080-084>089-251700-
SOUTHWEST KANSAS

CITY           SKY/WX    TMP DP  RH WIND       PRES   REMARKS
DODGE CITY     MOSUNNY   76  53  44 S16       30.30F
ELKHART          N/A     64  53  67 SE14        N/A
GARDEN CITY    CLOUDY    72  57  59 SE10      30.30F
GREAT BEND     LGT RAIN  67  62  84 N10       30.32R
LIBERAL        CLOUDY    69  58  67 S18       30.32S
$$

KSZ066>073-081>083-090>101-251700-
SOUTHEAST KANSAS

CITY           SKY/WX    TMP DP  RH WIND       PRES   REMARKS
CHANUTE        SUNNY     81  50  33 VRB5      30.29R
COFFEYVILLE    SUNNY     81  55  40 VRB3      30.28S
HUTCHINSON     CLOUDY    74  56  53 W5        30.30S
MEDICINE LODGE   N/A     78  55  44 S7        30.28F
NEWTON         CLOUDY    74  56  53 W8        30.32S
PARSONS        SUNNY     81  53  37 VRB3      30.30R
WICHITA INTL   CLOUDY    78  59  51 CALM      30.29F
WICHITA JABRA  CLOUDY    75  59  57 S6        30.30S
WICHITA MCCONL CLOUDY    75  59  57 W5        30.30S
WINFIELD       SUNNY     79  58  48 MISG      30.30F
$$

KSZ007>012-019>026-033>040-048>060-102>105-251700-
NORTHEAST KANSAS

CITY           SKY/WX    TMP DP  RH WIND       PRES   REMARKS
CONCORDIA      CLOUDY    68  42  38 NE12      30.34R
EMPORIA        CLOUDY    74  57  55 N6        30.31R
LAWRENCE       SUNNY     74  49  41 N8        30.31R
MANHATTAN      PTSUNNY   70  49  47 NE3       30.32R
OLATHE IND     SUNNY     73  50  44 N9        30.30F
OLATHE EXE     SUNNY     73  47  39 N7        30.30S
SALINA         CLOUDY    71  56  58 N8        30.33S
TOPEKA BILLARD SUNNY     74  51  44 NE9       30.30S
TOPEKA FORBES  SUNNY     75  49  39 N8        30.31R
$$




USA.gov is the U.S. government's official web portal to all federal, state and local government web resources and services.